Weather History for Tampa, FL

Change the Weather History Date:

Sunday, March 10, 2013

  Actual Average Record
Temperature  
Mean Temperature 69 °F 66 °F  
Max Temperature 80 °F 76 °F 87 °F (1925)
Min Temperature 58 °F 57 °F 35 °F (1932)
Degree Days  
Heating Degree Days 0 2  
Month to date heating degree days 76 26  
Since 1 July heating degree days 333 497  
Cooling Degree Days 4 4  
Month to date cooling degree days 4 34  
Year to date cooling degree days 218 147  
Growing Degree Days 18 (Base 50)    
Moisture  
Dew Point 53 °F    
Average Humidity 63    
Maximum Humidity 86    
Minimum Humidity 39    
Precipitation  
Precipitation 0.00 in 0.10 in 1.06 in (2011)
Month to date precipitation 0.01 0.97  
Year to date precipitation 1.57 6.01  
Sea Level Pressure  
Sea Level Pressure 30.13 in    
Wind  
Wind Speed 7 mph (East)    
Max Wind Speed 16 mph    
Max Gust Speed 23 mph    
Visibility 10 miles    
Events      
T = Trace of Precipitation, MM = Missing Value Source: NWS Daily Summary

Daily Weather History Graph

Daily Weather History Graph

Search for Another Location

Airport:

Trip Planner

Search our weather history database for the weather conditions in past years. The results will help you decide how hot, cold, wet, or windy it might be!

Date:

Astronomy

Mar. 10, 2013 Rise Set
Actual Time 7:44 AM EDT 7:36 PM EDT
Civil Twilight 7:21 AM EDT 7:59 PM EDT
Nautical Twilight 6:54 AM EDT 8:26 PM EDT
Astronomical Twilight 6:27 AM EDT 8:53 PM EDT
Moon 6:40 AM EDT (3/10) 6:43 PM EDT (3/10)
Length of Visible Light 12h 37m
Length of Day
11h 51m
Waning Crescent, 2% of the Moon is Illuminated
Mar 10
Waning Crescent
Mar 11
New
Mar 19
First Quarter
Mar 27
Full
Apr 3
Last Quarter

Hourly Weather History & Observations

Time (EDT) Temp. Dew Point Humidity Pressure Visibility Wind Dir Wind Speed Gust Speed Precip Events Conditions
12:53 AM 61.0 °F 50.0 °F 67% 30.18 in 10.0 mi ENE 5.8 mph - N/A   Mostly Cloudy
1:53 AM 60.1 °F 51.1 °F 72% 30.16 in 10.0 mi East 4.6 mph - N/A   Scattered Clouds
3:53 AM 60.1 °F 52.0 °F 75% 30.15 in 10.0 mi East 3.5 mph - N/A   Scattered Clouds
4:53 AM 59.0 °F 52.0 °F 78% 30.14 in 10.0 mi ENE 4.6 mph - N/A   Scattered Clouds
5:53 AM 59.0 °F 53.1 °F 81% 30.14 in 10.0 mi Calm Calm - N/A   Scattered Clouds
6:53 AM 57.9 °F 53.1 °F 84% 30.14 in 10.0 mi ENE 3.5 mph - N/A   Scattered Clouds
8:53 AM 60.1 °F 53.1 °F 78% 30.17 in 10.0 mi ENE 4.6 mph - N/A   Mostly Cloudy
9:53 AM 64.9 °F 53.1 °F 65% 30.17 in 10.0 mi East 8.1 mph - N/A   Mostly Cloudy
10:53 AM 69.1 °F 53.1 °F 57% 30.18 in 10.0 mi East 9.2 mph 16.1 mph N/A   Mostly Cloudy
11:53 AM 73.0 °F 52.0 °F 48% 30.13 in 10.0 mi ESE 8.1 mph 18.4 mph N/A   Partly Cloudy
12:53 PM 75.0 °F 51.1 °F 43% 30.13 in 10.0 mi East 9.2 mph 18.4 mph N/A   Partly Cloudy
1:53 PM 77.0 °F 51.1 °F 40% 30.12 in 10.0 mi SSE 9.2 mph - N/A   Scattered Clouds
2:53 PM 78.1 °F 52.0 °F 40% 30.09 in 10.0 mi East 8.1 mph 17.3 mph N/A   Scattered Clouds
3:53 PM 78.1 °F 52.0 °F 40% 30.08 in 10.0 mi East 11.5 mph 16.1 mph N/A   Scattered Clouds
4:53 PM 79.0 °F 51.1 °F 38% 30.06 in 10.0 mi SSE 9.2 mph - N/A   Scattered Clouds
5:53 PM 79.0 °F 52.0 °F 39% 30.06 in 10.0 mi Variable 4.6 mph - N/A   Scattered Clouds
6:53 PM 73.0 °F 57.0 °F 57% 30.06 in 10.0 mi West 6.9 mph - N/A   Scattered Clouds
7:53 PM 71.1 °F 55.0 °F 57% 30.09 in 10.0 mi WNW 9.2 mph - N/A   Mostly Cloudy
8:53 PM 66.9 °F 55.0 °F 66% 30.10 in 10.0 mi North 8.1 mph - N/A   Mostly Cloudy
9:53 PM 68.0 °F 55.0 °F 63% 30.12 in 10.0 mi North 5.8 mph - N/A   Overcast
10:53 PM 69.1 °F 54.0 °F 58% 30.13 in 10.0 mi ESE 5.8 mph - N/A   Mostly Cloudy
11:53 PM 66.9 °F 55.0 °F 66% 30.12 in 10.0 mi ESE 9.2 mph - N/A   Partly Cloudy
12:53 AM 64.9 °F 55.0 °F 70% 30.12 in 10.0 mi ESE 5.8 mph - N/A   Clear